| time (UTC) | temp C | wind direction | speed KPH | gust KPH | rain 1hr cm | rain 24hr cm | rain mn cm | humidity % | barometer mb |
| 20260503031505 | 10 | 0 | 0.0 | 0.0 | 0.00 | 0.48 | 0.48 | 95 | 1011.5 |
| 20260503030026 | 10 | 0 | 0.0 | 0.0 | 0.00 | 0.48 | 0.48 | 95 | 1011.5 |
| 20260503024505 | 10 | 0 | 0.0 | 0.0 | 0.03 | 0.48 | 0.48 | 95 | 1011.6 |
| 20260503023005 | 10 | 0 | 0.0 | 0.0 | 0.03 | 0.51 | 0.48 | 95 | 1011.4 |
| 20260503021506 | 10 | 0 | 0.0 | 0.0 | 0.03 | 0.51 | 0.48 | 95 | 1011.5 |
| 20260503020005 | 10 | 0 | 0.0 | 0.0 | 0.03 | 0.51 | 0.48 | 95 | 1011.6 |
| 20260503014505 | 10 | 0 | 0.0 | 0.0 | 0.00 | 0.48 | 0.46 | 95 | 1011.6 |
| 20260503013027 | 11 | 0 | 0.0 | 0.0 | 0.00 | 0.48 | 0.46 | 95 | 1011.6 |
| 20260503011505 | 11 | 0 | 0.0 | 0.0 | 0.00 | 0.48 | 0.46 | 95 | 1011.0 |
| 20260503010005 | 11 | 0 | 0.0 | 0.0 | 0.00 | 0.48 | 0.46 | 95 | 1011.0 |
| 20260503004504 | 11 | 0 | 0.0 | 0.0 | 0.00 | 0.48 | 0.46 | 95 | 1010.8 |
| 20260503003005 | 11 | 0 | 0.0 | 0.0 | 0.00 | 0.48 | 0.46 | 95 | 1010.6 |
| 20260503001526 | 11 | 0 | 0.0 | 0.0 | 0.00 | 0.48 | 0.46 | 94 | 1010.7 |
| 20260503000005 | 11 | 0 | 0.0 | 0.0 | 0.00 | 0.48 | 0.46 | 94 | 1010.7 |
| 20260502234526 | 11 | 0 | 0.0 | 0.0 | 0.00 | 0.48 | 0.46 | 94 | 1010.3 |
| 20260502233005 | 11 | 0 | 0.0 | 0.0 | 0.00 | 0.48 | 0.46 | 93 | 1010.1 |
| 20260502231505 | 11 | 0 | 0.0 | 0.0 | 0.00 | 0.48 | 0.46 | 93 | 1009.8 |
| 20260502230005 | 11 | 0 | 0.0 | 0.0 | 0.00 | 0.48 | 0.46 | 93 | 1009.9 |
| 20260502224505 | 11 | 0 | 0.0 | 0.0 | 0.00 | 0.48 | 0.46 | 93 | 1010.0 |
| 20260502223025 | 11 | 0 | 0.0 | 0.0 | 0.00 | 0.48 | 0.46 | 92 | 1010.1 |
| 20260502221505 | 11 | 0 | 0.0 | 0.0 | 0.00 | 0.48 | 0.46 | 92 | 1010.0 |
| 20260502220026 | 11 | 0 | 0.0 | 0.0 | 0.00 | 0.48 | 0.46 | 91 | 1010.0 |
| 20260502214504 | 11 | 0 | 0.0 | 0.0 | 0.03 | 0.48 | 0.46 | 91 | 1010.1 |
| 20260502213004 | 12 | 0 | 0.0 | 0.0 | 0.03 | 0.48 | 0.46 | 91 | 1010.1 |
| 20260502211526 | 12 | 107 | 0.0 | 1.6 | 0.03 | 0.48 | 0.46 | 92 | 1010.1 |
| 20260502210005 | 12 | 106 | 0.0 | 1.6 | 0.05 | 0.48 | 0.46 | 91 | 1010.1 |
| 20260502204504 | 12 | 0 | 0.0 | 0.0 | 0.03 | 0.46 | 0.43 | 91 | 1009.9 |
| 20260502203004 | 11 | 98 | 0.0 | 1.6 | 0.05 | 0.46 | 0.43 | 90 | 1009.9 |
| 20260502201504 | 11 | 129 | 0.0 | 3.2 | 0.05 | 0.46 | 0.43 | 89 | 1010.0 |
| 20260502200026 | 11 | 85 | 0.0 | 1.6 | 0.03 | 0.43 | 0.41 | 90 | 1010.0 |
| 20260502194504 | 11 | 74 | 0.0 | 6.4 | 0.03 | 0.43 | 0.41 | 88 | 1009.8 |
| 20260502193004 | 11 | 81 | 0.0 | 3.2 | 0.00 | 0.41 | 0.38 | 91 | 1010.1 |
| 20260502191505 | 11 | 53 | 0.0 | 1.6 | 0.00 | 0.41 | 0.38 | 91 | 1010.5 |
| 20260502190005 | 11 | 121 | 0.0 | 6.4 | 0.00 | 0.41 | 0.38 | 90 | 1010.4 |
| 20260502184504 | 12 | 84 | 1.6 | 6.4 | 0.00 | 0.41 | 0.38 | 90 | 1010.7 |
| 20260502181505 | 12 | 70 | 1.6 | 4.8 | 0.05 | 0.41 | 0.38 | 90 | 1010.9 |
| 20260502163004 | 13 | 66 | 3.2 | 8.0 | 0.08 | 0.33 | 0.30 | 89 | 1011.1 |
| 20260502161504 | 13 | 67 | 1.6 | 6.4 | 0.10 | 0.33 | 0.30 | 93 | 1011.3 |
| 20260502151504 | 13 | 74 | 0.0 | 4.8 | 0.03 | 0.23 | 0.20 | 92 | 1012.2 |
| 20260502123003 | 12 | 124 | 0.0 | 1.6 | 0.05 | 0.15 | 0.13 | 96 | 1011.1 |
| 20260502121525 | 12 | 109 | 0.0 | 1.6 | 0.03 | 0.13 | 0.10 | 96 | 1011.2 |
| 20260502114504 | 12 | 0 | 0.0 | 0.0 | 0.08 | 0.13 | 0.10 | 96 | 1011.3 |
| 20260502113004 | 12 | 0 | 0.0 | 0.0 | 0.05 | 0.10 | 0.08 | 96 | 1011.3 |
| 20260502111503 | 12 | 0 | 0.0 | 0.0 | 0.08 | 0.10 | 0.08 | 96 | 1011.2 |
| 20260502110004 | 12 | 0 | 0.0 | 0.0 | 0.05 | 0.08 | 0.05 | 96 | 1011.1 |
| 20260502104504 | 12 | 0 | 0.0 | 0.0 | 0.03 | 0.05 | 0.03 | 96 | 1011.1 |
| 20260502103025 | 12 | 0 | 0.0 | 0.0 | 0.03 | 0.05 | 0.03 | 96 | 1011.0 |
| 20260502101504 | 12 | 0 | 0.0 | 0.0 | 0.00 | 0.03 | 0.00 | 96 | 1010.8 |
| 20260502091525 | 12 | 0 | 0.0 | 0.0 | 0.00 | 0.03 | 0.00 | 96 | 1010.7 |
| 20260502071526 | 12 | 0 | 0.0 | 0.0 | 0.00 | 0.03 | 0.00 | 95 | 1010.2 |
| 20260502070005 | 12 | 0 | 0.0 | 0.0 | 0.00 | 0.03 | 0.00 | 95 | 1010.3 |
| 20260502064506 | 12 | 0 | 0.0 | 0.0 | 0.00 | 0.03 | 0.00 | 95 | 1010.5 |
| 20260502063005 | 12 | 0 | 0.0 | 0.0 | 0.00 | 0.03 | 0.00 | 95 | 1010.5 |
| 20260502061505 | 12 | 0 | 0.0 | 0.0 | 0.00 | 0.03 | 0.00 | 95 | 1010.8 |
| 20260502060005 | 12 | 0 | 0.0 | 0.0 | 0.00 | 0.03 | 0.00 | 95 | 1011.0 |
| 20260502054505 | 12 | 0 | 0.0 | 0.0 | 0.00 | 0.03 | 0.00 | 95 | 1011.2 |
| 20260502053006 | 11 | 0 | 0.0 | 0.0 | 0.00 | 0.03 | 0.00 | 95 | 1011.4 |
| 20260502051505 | 11 | 0 | 0.0 | 0.0 | 0.00 | 0.03 | 0.00 | 94 | 1011.6 |
| 20260502050026 | 11 | 0 | 0.0 | 0.0 | 0.00 | 0.03 | 0.00 | 94 | 1011.8 |
| 20260502044505 | 11 | 0 | 0.0 | 0.0 | 0.00 | 0.03 | 0.00 | 94 | 1011.8 |
| 20260502043005 | 11 | 0 | 0.0 | 0.0 | 0.00 | 0.03 | 0.00 | 93 | 1012.0 |
| 20260502041505 | 12 | 0 | 0.0 | 0.0 | 0.00 | 0.03 | 0.00 | 93 | 1012.1 |
| 20260502040006 | 12 | 0 | 0.0 | 0.0 | 0.00 | 0.03 | 0.00 | 93 | 1012.1 |
| 20260502034505 | 12 | 0 | 0.0 | 0.0 | 0.00 | 0.03 | 0.03 | 92 | 1012.3 |
| 20260502033004 | 12 | 268 | 0.0 | 1.6 | 0.03 | 0.03 | 0.03 | 91 | 1012.3 |